Tracking 30703 objects as of 13-Jun-2025
HD Live streaming from Space Station
objects crossing your sky now

STARLINK-4776

Track STARLINK-4776 now!
10-day predictions
STARLINK-4776 is classified as:


NORAD ID: 53837
Int'l Code: 2022-114V
Perigee: 545.7 km
Apogee: 548.0 km
Inclination: 53.2 °
Period: 95.4 minutes
Semi major axis: 6917 km
RCS: Unknown
Launch date: September 19, 2022
Source: United States (US)
Launch site: AIR FORCE EASTERN TEST RANGE (AFETR)
Your satellite tracking list
Your tracking list is empty




NASA's NSSDC Master Catalog

Two Line Element Set (TLE):
1 53837U 22114V   25163.74909733  .00000276  00000-0  35409-4 0  9995
2 53837  53.2177  75.6391 0001639  85.9196 274.1983 15.08842462152081
Source of the keplerian elements: AFSPC